owner,sensor,date,latitude,longitude,vertical_datum,direction_of_sea_water_velocity,sea_water_speed,upward_sea_water_velocity,qcFlag 
TABS,ioos:station:TABS:M:1,1999-10-01T00:00:00Z,28.1921,-94.1914,2.0,249.0207807,26.64631307,-99999.0,'11111222,11111222,99999999' 
TABS,ioos:station:TABS:M:1,1999-10-01T00:30:00Z,28.1921,-94.1914,2.0,238.7785862,27.87737613,-99999.0,'11111222,11111222,99999999' 
TABS,ioos:station:TABS:M:1,1999-10-01T01:00:00Z,28.1921,-94.1914,2.0,232.8997631,28.39822882,-99999.0,'11111222,11111222,99999999' 
TABS,ioos:station:TABS:M:1,1999-10-01T01:30:00Z,28.1921,-94.1914,2.0,228.0195472,30.06550515,-99999.0,'11111222,11111222,99999999' 
TABS,ioos:station:TABS:M:1,1999-10-01T02:00:00Z,28.1921,-94.1914,2.0,223.8813108,32.24314036,-99999.0,'11111222,11111222,99999999' 
TABS,ioos:station:TABS:M:1,1999-10-01T02:30:00Z,28.1921,-94.1914,2.0,230.9075668,31.66981686,-99999.0,'11111222,11111222,99999999' 
TABS,ioos:station:TABS:M:1,1999-10-01T03:00:00Z,28.1921,-94.1914,2.0,226.0742994,33.93295154,-99999.0,'11111222,11111222,99999999' 
TABS,ioos:station:TABS:M:1,1999-10-01T03:30:00Z,28.1921,-94.1914,2.0,226.823614,33.1022975,-99999.0,'11111222,11111222,99999999' 
TABS,ioos:station:TABS:M:1,1999-10-01T04:00:00Z,28.1921,-94.1914,2.0,230.9808857,37.3902942,-99999.0,'11111222,11111222,99999999' 
TABS,ioos:station:TABS:M:1,1999-10-01T04:30:00Z,28.1921,-94.1914,2.0,229.2044184,38.76894892,-99999.0,'11111222,11111222,99999999' 
TABS,ioos:station:TABS:M:1,1999-10-01T05:00:00Z,28.1921,-94.1914,2.0,225.929625,38.77577207,-99999.0,'11111222,11111222,99999999' 
TABS,ioos:station:TABS:M:1,1999-10-01T05:30:00Z,28.1921,-94.1914,2.0,225.6128376,38.98502918,-99999.0,'11111222,11111222,99999999' 
TABS,ioos:station:TABS:M:1,1999-10-01T06:00:00Z,28.1921,-94.1914,2.0,227.8976693,43.77639661,-99999.0,'11111222,11111222,99999999' 
TABS,ioos:station:TABS:M:1,1999-10-01T06:30:00Z,28.1921,-94.1914,2.0,226.9088323,47.54396702,-99999.0,'11111222,11111222,99999999' 
TABS,ioos:station:TABS:M:1,1999-10-01T07:00:00Z,28.1921,-94.1914,2.0,226.3914825,47.74379331,-99999.0,'11111222,11111222,99999999' 
TABS,ioos:station:TABS:M:1,1999-10-01T07:30:00Z,28.1921,-94.1914,2.0,227.099888,48.81608854,-99999.0,'11111222,11111222,99999999' 
TABS,ioos:station:TABS:M:1,1999-10-01T08:00:00Z,28.1921,-94.1914,2.0,226.2534011,48.47670368,-99999.0,'11111222,11111222,99999999' 
TABS,ioos:station:TABS:M:1,1999-10-01T08:30:00Z,28.1921,-94.1914,2.0,227.9741954,46.73908964,-99999.0,'11111222,11111222,99999999' 
TABS,ioos:station:TABS:M:1,1999-10-01T09:00:00Z,28.1921,-94.1914,2.0,225.6596418,46.04277685,-99999.0,'11111222,11111222,99999999' 
TABS,ioos:station:TABS:M:1,1999-10-01T09:30:00Z,28.1921,-94.1914,2.0,227.930542,43.147526,-99999.0,'11111222,11111222,99999999' 
TABS,ioos:station:TABS:M:1,1999-10-01T10:00:00Z,28.1921,-94.1914,2.0,227.8477706,42.40807942,-99999.0,'11111222,11111222,99999999' 
TABS,ioos:station:TABS:M:1,1999-10-01T10:30:00Z,28.1921,-94.1914,2.0,227.8090602,40.82791814,-99999.0,'11111222,11111222,99999999' 
TABS,ioos:station:TABS:M:1,1999-10-01T11:00:00Z,28.1921,-94.1914,2.0,229.1815568,38.98051308,-99999.0,'11111222,11111222,99999999' 
TABS,ioos:station:TABS:M:1,1999-10-01T11:30:00Z,28.1921,-94.1914,2.0,227.4194739,39.85979679,-99999.0,'11111222,11111222,99999999' 
TABS,ioos:station:TABS:M:1,1999-10-01T12:00:00Z,28.1921,-94.1914,2.0,228.6758663,39.48122845,-99999.0,'11111222,11111222,99999999' 
TABS,ioos:station:TABS:M:1,1999-10-01T12:30:00Z,28.1921,-94.1914,2.0,228.4602511,38.42353445,-99999.0,'11111222,11111222,99999999' 
TABS,ioos:station:TABS:M:1,1999-10-01T13:00:00Z,28.1921,-94.1914,2.0,224.5149611,37.61235568,-99999.0,'11111222,11111222,99999999' 
TABS,ioos:station:TABS:M:1,1999-10-01T13:30:00Z,28.1921,-94.1914,2.0,225.3535022,34.35190242,-99999.0,'11111222,11111222,99999999' 
TABS,ioos:station:TABS:M:1,1999-10-01T14:00:00Z,28.1921,-94.1914,2.0,217.89737,33.22734567,-99999.0,'11111222,11111222,99999999' 
TABS,ioos:station:TABS:M:1,1999-10-01T14:30:00Z,28.1921,-94.1914,2.0,220.2548855,35.73235229,-99999.0,'11111222,11111222,99999999' 
TABS,ioos:station:TABS:M:1,1999-10-01T15:00:00Z,28.1921,-94.1914,2.0,217.4731904,33.79387518,-99999.0,'11111222,11111222,99999999' 
TABS,ioos:station:TABS:M:1,1999-10-01T15:30:00Z,28.1921,-94.1914,2.0,217.9554336,36.09448157,-99999.0,'11111222,11111222,99999999' 
TABS,ioos:station:TABS:M:1,1999-10-01T16:00:00Z,28.1921,-94.1914,2.0,222.4304493,37.54268238,-99999.0,'11111222,11111222,99999999' 
TABS,ioos:station:TABS:M:1,1999-10-01T16:30:00Z,28.1921,-94.1914,2.0,222.0635133,41.136908,-99999.0,'11111222,11111222,99999999' 
TABS,ioos:station:TABS:M:1,1999-10-01T17:00:00Z,28.1921,-94.1914,2.0,221.5794054,42.4312762,-99999.0,'11111222,11111222,99999999' 
TABS,ioos:station:TABS:M:1,1999-10-01T17:30:00Z,28.1921,-94.1914,2.0,222.9300772,46.60045064,-99999.0,'11111222,11111222,99999999' 
TABS,ioos:station:TABS:M:1,1999-10-01T18:00:00Z,28.1921,-94.1914,2.0,223.1016928,50.81228592,-99999.0,'11111222,11111222,99999999' 
TABS,ioos:station:TABS:M:1,1999-10-01T18:30:00Z,28.1921,-94.1914,2.0,223.6436319,49.00208159,-99999.0,'11111222,11111222,99999999' 
TABS,ioos:station:TABS:M:1,1999-10-01T19:00:00Z,28.1921,-94.1914,2.0,226.5967634,49.21960991,-99999.0,'11111222,11111222,99999999' 
TABS,ioos:station:TABS:M:1,1999-10-01T19:30:00Z,28.1921,-94.1914,2.0,227.3796727,48.18846854,-99999.0,'11111222,11111222,99999999' 
TABS,ioos:station:TABS:M:1,1999-10-01T20:00:00Z,28.1921,-94.1914,2.0,223.8891894,43.41744004,-99999.0,'11111222,11111222,99999999' 
TABS,ioos:station:TABS:M:1,1999-10-01T20:30:00Z,28.1921,-94.1914,2.0,228.9765041,44.04566948,-99999.0,'11111222,11111222,99999999' 
TABS,ioos:station:TABS:M:1,1999-10-01T21:00:00Z,28.1921,-94.1914,2.0,224.9996843,38.35347181,-99999.0,'11111222,11111222,99999999' 
TABS,ioos:station:TABS:M:1,1999-10-01T21:30:00Z,28.1921,-94.1914,2.0,231.8331493,38.09375408,-99999.0,'11111222,11111222,99999999' 
TABS,ioos:station:TABS:M:1,1999-10-01T22:00:00Z,28.1921,-94.1914,2.0,248.5361643,47.22500291,-99999.0,'11111222,11111222,99999999' 
TABS,ioos:station:TABS:M:1,1999-10-01T22:30:00Z,28.1921,-94.1914,2.0,245.2866988,49.53689635,-99999.0,'11111222,11111222,99999999' 
TABS,ioos:station:TABS:M:1,1999-10-01T23:00:00Z,28.1921,-94.1914,2.0,248.5786755,49.77858978,-99999.0,'11111222,11111222,99999999' 
TABS,ioos:station:TABS:M:1,1999-10-01T23:30:00Z,28.1921,-94.1914,2.0,240.7983978,39.08758499,-99999.0,'11111222,11111222,99999999' 
TABS,ioos:station:TABS:M:1,1999-10-02T00:00:00Z,28.1921,-94.1914,2.0,239.3858888,41.55145244,-99999.0,'11111222,11111222,99999999' 
TABS,ioos:station:TABS:M:1,1999-10-02T00:30:00Z,28.1921,-94.1914,2.0,238.3002876,41.6775911,-99999.0,'11111222,11111222,99999999' 
TABS,ioos:station:TABS:M:1,1999-10-02T01:00:00Z,28.1921,-94.1914,2.0,236.5378278,41.07864896,-99999.0,'11111222,11111222,99999999' 
TABS,ioos:station:TABS:M:1,1999-10-02T01:30:00Z,28.1921,-94.1914,2.0,245.9813716,34.42025131,-99999.0,'11111222,11111222,99999999' 
TABS,ioos:station:TABS:M:1,1999-10-02T02:00:00Z,28.1921,-94.1914,2.0,246.4738023,37.70394409,-99999.0,'11111222,11111222,99999999' 
TABS,ioos:station:TABS:M:1,1999-10-02T02:30:00Z,28.1921,-94.1914,2.0,243.8725762,34.51695381,-99999.0,'11111222,11111222,99999999' 
TABS,ioos:station:TABS:M:1,1999-10-02T03:00:00Z,28.1921,-94.1914,2.0,250.4719371,27.19420894,-99999.0,'11111222,11111222,99999999' 
TABS,ioos:station:TABS:M:1,1999-10-02T03:30:00Z,28.1921,-94.1914,2.0,241.8794773,26.86059754,-99999.0,'11111222,11111222,99999999' 
TABS,ioos:station:TABS:M:1,1999-10-02T04:00:00Z,28.1921,-94.1914,2.0,247.9963274,22.6605428,-99999.0,'11111222,11111222,99999999' 
TABS,ioos:station:TABS:M:1,1999-10-02T04:30:00Z,28.1921,-94.1914,2.0,245.2825958,20.66307092,-99999.0,'11111222,11111222,99999999' 
TABS,ioos:station:TABS:M:1,1999-10-02T05:00:00Z,28.1921,-94.1914,2.0,241.7335223,17.92774944,-99999.0,'11111222,11111222,99999999' 
TABS,ioos:station:TABS:M:1,1999-10-02T05:30:00Z,28.1921,-94.1914,2.0,241.3891863,18.66964649,-99999.0,'11111222,11111222,99999999' 
TABS,ioos:station:TABS:M:1,1999-10-02T06:00:00Z,28.1921,-94.1914,2.0,242.2240684,15.66491621,-99999.0,'11111222,11111222,99999999' 
TABS,ioos:station:TABS:M:1,1999-10-02T06:30:00Z,28.1921,-94.1914,2.0,237.0726732,15.61896924,-99999.0,'11111222,11111222,99999999' 
TABS,ioos:station:TABS:M:1,1999-10-02T07:00:00Z,28.1921,-94.1914,2.0,233.1364548,17.13600012,-99999.0,'11111222,11111222,99999999' 
TABS,ioos:station:TABS:M:1,1999-10-02T07:30:00Z,28.1921,-94.1914,2.0,242.3998288,18.32532946,-99999.0,'11111222,11111222,99999999' 
TABS,ioos:station:TABS:M:1,1999-10-02T08:00:00Z,28.1921,-94.1914,2.0,235.1751714,19.05213899,-99999.0,'11111222,11111222,99999999' 
TABS,ioos:station:TABS:M:1,1999-10-02T08:30:00Z,28.1921,-94.1914,2.0,237.7049012,18.67952087,-99999.0,'11111222,11111222,99999999' 
TABS,ioos:station:TABS:M:1,1999-10-02T09:00:00Z,28.1921,-94.1914,2.0,242.2677208,23.05864263,-99999.0,'11111222,11111222,99999999' 
TABS,ioos:station:TABS:M:1,1999-10-02T09:30:00Z,28.1921,-94.1914,2.0,243.1011565,23.05425123,-99999.0,'11111222,11111222,99999999' 
TABS,ioos:station:TABS:M:1,1999-10-02T10:00:00Z,28.1921,-94.1914,2.0,241.1951794,23.80547206,-99999.0,'11111222,11111222,99999999' 
TABS,ioos:station:TABS:M:1,1999-10-02T10:30:00Z,28.1921,-94.1914,2.0,242.2844495,23.39398427,-99999.0,'11111222,11111222,99999999' 
TABS,ioos:station:TABS:M:1,1999-10-02T11:00:00Z,28.1921,-94.1914,2.0,245.2498324,25.27130586,-99999.0,'11111222,11111222,99999999' 
TABS,ioos:station:TABS:M:1,1999-10-02T11:30:00Z,28.1921,-94.1914,2.0,248.6766985,23.34828902,-99999.0,'11111222,11111222,99999999' 
TABS,ioos:station:TABS:M:1,1999-10-02T12:00:00Z,28.1921,-94.1914,2.0,240.9033341,22.68244475,-99999.0,'11111222,11111222,99999999' 
TABS,ioos:station:TABS:M:1,1999-10-02T12:30:00Z,28.1921,-94.1914,2.0,242.5862466,22.65385177,-99999.0,'11111222,11111222,99999999' 
TABS,ioos:station:TABS:M:1,1999-10-02T13:00:00Z,28.1921,-94.1914,2.0,238.8712753,25.06976665,-99999.0,'11111222,11111222,99999999' 
TABS,ioos:station:TABS:M:1,1999-10-02T13:30:00Z,28.1921,-94.1914,2.0,226.5581294,23.39974786,-99999.0,'11111222,11111222,99999999' 
TABS,ioos:station:TABS:M:1,1999-10-02T14:00:00Z,28.1921,-94.1914,2.0,220.4314013,17.22326914,-99999.0,'11111222,11111222,99999999' 
TABS,ioos:station:TABS:M:1,1999-10-02T14:30:00Z,28.1921,-94.1914,2.0,239.2106865,32.60546273,-99999.0,'11111222,11111222,99999999' 
TABS,ioos:station:TABS:M:1,1999-10-02T15:00:00Z,28.1921,-94.1914,2.0,238.4843294,37.05570132,-99999.0,'11111222,11111222,99999999' 
TABS,ioos:station:TABS:M:1,1999-10-02T15:30:00Z,28.1921,-94.1914,2.0,229.6828992,29.7057385,-99999.0,'11111222,11111222,99999999' 
TABS,ioos:station:TABS:M:1,1999-10-02T16:00:00Z,28.1921,-94.1914,2.0,240.9267524,39.55367619,-99999.0,'11111222,11111222,99999999' 
TABS,ioos:station:TABS:M:1,1999-10-02T16:30:00Z,28.1921,-94.1914,2.0,193.9627656,26.56494871,-99999.0,'11111222,11111222,99999999' 
TABS,ioos:station:TABS:M:1,1999-10-02T17:00:00Z,28.1921,-94.1914,2.0,232.9125396,39.03628056,-99999.0,'11111222,11111222,99999999' 
TABS,ioos:station:TABS:M:1,1999-10-02T17:30:00Z,28.1921,-94.1914,2.0,214.57244,34.92806894,-99999.0,'11111222,11111222,99999999' 
TABS,ioos:station:TABS:M:1,1999-10-02T18:00:00Z,28.1921,-94.1914,2.0,225.8968582,53.73963249,-99999.0,'11111222,11111222,99999999' 
TABS,ioos:station:TABS:M:1,1999-10-02T18:30:00Z,28.1921,-94.1914,2.0,217.7566756,45.98951185,-99999.0,'11111222,11111222,99999999' 
TABS,ioos:station:TABS:M:1,1999-10-02T19:00:00Z,28.1921,-94.1914,2.0,223.8636197,58.48922807,-99999.0,'11111222,11111222,99999999' 
TABS,ioos:station:TABS:M:1,1999-10-02T19:30:00Z,28.1921,-94.1914,2.0,218.7332889,52.14958581,-99999.0,'11111222,11111222,99999999' 
TABS,ioos:station:TABS:M:1,1999-10-02T20:00:00Z,28.1921,-94.1914,2.0,259.7601278,48.60409962,-99999.0,'11111222,11111222,99999999' 
TABS,ioos:station:TABS:M:1,1999-10-02T20:30:00Z,28.1921,-94.1914,2.0,258.2049499,45.20442567,-99999.0,'11111222,11111222,99999999' 
TABS,ioos:station:TABS:M:1,1999-10-02T21:00:00Z,28.1921,-94.1914,2.0,257.7803751,44.36509551,-99999.0,'11111222,11111222,99999999' 
TABS,ioos:station:TABS:M:1,1999-10-02T21:30:00Z,28.1921,-94.1914,2.0,260.5052019,46.98359395,-99999.0,'11111222,11111222,99999999' 
TABS,ioos:station:TABS:M:1,1999-10-02T22:00:00Z,28.1921,-94.1914,2.0,263.1903463,42.76162415,-99999.0,'11111222,11111222,99999999' 
TABS,ioos:station:TABS:M:1,1999-10-02T22:30:00Z,28.1921,-94.1914,2.0,262.0672307,47.53482934,-99999.0,'11111222,11111222,99999999' 
TABS,ioos:station:TABS:M:1,1999-10-02T23:00:00Z,28.1921,-94.1914,2.0,259.1487099,47.48908506,-99999.0,'11111222,11111222,99999999' 
TABS,ioos:station:TABS:M:1,1999-10-02T23:30:00Z,28.1921,-94.1914,2.0,257.730169,46.96267135,-99999.0,'11111222,11111222,99999999' 
TABS,ioos:station:TABS:M:1,1999-10-03T00:00:00Z,28.1921,-94.1914,2.0,256.4526169,42.60536116,-99999.0,'11111222,11111222,99999999' 
TABS,ioos:station:TABS:M:1,1999-10-03T00:30:00Z,28.1921,-94.1914,2.0,255.4923783,39.24116461,-99999.0,'11111222,11111222,99999999' 
TABS,ioos:station:TABS:M:1,1999-10-03T01:00:00Z,28.1921,-94.1914,2.0,252.1880539,34.58787793,-99999.0,'11111222,11111222,99999999' 
TABS,ioos:station:TABS:M:1,1999-10-03T01:30:00Z,28.1921,-94.1914,2.0,251.8535565,28.22368686,-99999.0,'11111222,11111222,99999999' 
TABS,ioos:station:TABS:M:1,1999-10-03T02:00:00Z,28.1921,-94.1914,2.0,257.6650773,23.03163911,-99999.0,'11111222,11111222,99999999' 
TABS,ioos:station:TABS:M:1,1999-10-03T02:30:00Z,28.1921,-94.1914,2.0,260.0144322,18.91653509,-99999.0,'11111222,11111222,99999999' 
TABS,ioos:station:TABS:M:1,1999-10-03T03:00:00Z,28.1921,-94.1914,2.0,269.1696664,20.71217275,-99999.0,'11111222,11111222,99999999' 
TABS,ioos:station:TABS:M:1,1999-10-03T03:30:00Z,28.1921,-94.1914,2.0,265.0950448,20.93665924,-99999.0,'11111222,11111222,99999999' 
TABS,ioos:station:TABS:M:1,1999-10-03T04:00:00Z,28.1921,-94.1914,2.0,266.6706972,17.91022055,-99999.0,'11111222,11111222,99999999' 
TABS,ioos:station:TABS:M:1,1999-10-03T04:30:00Z,28.1921,-94.1914,2.0,281.9486526,15.84324462,-99999.0,'11111222,11111222,99999999' 
TABS,ioos:station:TABS:M:1,1999-10-03T05:00:00Z,28.1921,-94.1914,2.0,275.827542,14.67583388,-99999.0,'11111222,11111222,99999999' 
TABS,ioos:station:TABS:M:1,1999-10-03T05:30:00Z,28.1921,-94.1914,2.0,282.1816764,13.41197226,-99999.0,'11111222,11111222,99999999' 
TABS,ioos:station:TABS:M:1,1999-10-03T06:00:00Z,28.1921,-94.1914,2.0,283.0914264,15.14355969,-99999.0,'11111222,11111222,99999999' 
TABS,ioos:station:TABS:M:1,1999-10-03T06:30:00Z,28.1921,-94.1914,2.0,279.9314522,14.66981254,-99999.0,'11111222,11111222,99999999' 
TABS,ioos:station:TABS:M:1,1999-10-03T07:00:00Z,28.1921,-94.1914,2.0,274.2699048,15.98435798,-99999.0,'11111222,11111222,99999999' 
TABS,ioos:station:TABS:M:1,1999-10-03T07:30:00Z,28.1921,-94.1914,2.0,267.1846516,15.06818171,-99999.0,'11111222,11111222,99999999' 
TABS,ioos:station:TABS:M:1,1999-10-03T08:00:00Z,28.1921,-94.1914,2.0,270.4475683,19.22058532,-99999.0,'11111222,11111222,99999999' 
TABS,ioos:station:TABS:M:1,1999-10-03T08:30:00Z,28.1921,-94.1914,2.0,267.2198132,18.35159394,-99999.0,'11111222,11111222,99999999' 
TABS,ioos:station:TABS:M:1,1999-10-03T09:00:00Z,28.1921,-94.1914,2.0,268.9412824,16.2427707,-99999.0,'11111222,11111222,99999999' 
TABS,ioos:station:TABS:M:1,1999-10-03T09:30:00Z,28.1921,-94.1914,2.0,265.7840906,18.22931705,-99999.0,'11111222,11111222,99999999' 
TABS,ioos:station:TABS:M:1,1999-10-03T10:00:00Z,28.1921,-94.1914,2.0,261.2229047,18.54717768,-99999.0,'11111222,11111222,99999999' 
TABS,ioos:station:TABS:M:1,1999-10-03T10:30:00Z,28.1921,-94.1914,2.0,258.5859472,17.33277243,-99999.0,'11111222,11111222,99999999' 
TABS,ioos:station:TABS:M:1,1999-10-03T11:00:00Z,28.1921,-94.1914,2.0,263.5939048,17.38855946,-99999.0,'11111222,11111222,99999999' 
TABS,ioos:station:TABS:M:1,1999-10-03T11:30:00Z,28.1921,-94.1914,2.0,260.3093336,18.59531661,-99999.0,'11111222,11111222,99999999' 
TABS,ioos:station:TABS:M:1,1999-10-03T12:00:00Z,28.1921,-94.1914,2.0,265.1135512,17.49357025,-99999.0,'11111222,11111222,99999999' 
TABS,ioos:station:TABS:M:1,1999-10-03T12:30:00Z,28.1921,-94.1914,2.0,258.9364043,20.9493198,-99999.0,'11111222,11111222,99999999' 
TABS,ioos:station:TABS:M:1,1999-10-03T13:00:00Z,28.1921,-94.1914,2.0,260.8898631,19.76935254,-99999.0,'11111222,11111222,99999999' 
TABS,ioos:station:TABS:M:1,1999-10-03T13:30:00Z,28.1921,-94.1914,2.0,260.5495047,15.40911743,-99999.0,'11111222,11111222,99999999' 
TABS,ioos:station:TABS:M:1,1999-10-03T14:00:00Z,28.1921,-94.1914,2.0,264.9460352,28.72164689,-99999.0,'11111222,11111222,99999999' 
TABS,ioos:station:TABS:M:1,1999-10-03T14:30:00Z,28.1921,-94.1914,2.0,271.723079,54.55465608,-99999.0,'11111222,11111222,99999999' 
TABS,ioos:station:TABS:M:1,1999-10-03T15:00:00Z,28.1921,-94.1914,2.0,267.310958,57.13289158,-99999.0,'11111222,11111222,99999999' 
TABS,ioos:station:TABS:M:1,1999-10-03T15:30:00Z,28.1921,-94.1914,2.0,263.8348251,54.10286684,-99999.0,'11111222,11111222,99999999' 
TABS,ioos:station:TABS:M:1,1999-10-03T16:00:00Z,28.1921,-94.1914,2.0,263.5370181,54.28494911,-99999.0,'11111222,11111222,99999999' 
TABS,ioos:station:TABS:M:1,1999-10-03T16:30:00Z,28.1921,-94.1914,2.0,259.4708909,53.79573403,-99999.0,'11111222,11111222,99999999' 
TABS,ioos:station:TABS:M:1,1999-10-03T17:00:00Z,28.1921,-94.1914,2.0,247.763793,51.18653436,-99999.0,'11111222,11111222,99999999' 
TABS,ioos:station:TABS:M:1,1999-10-03T17:30:00Z,28.1921,-94.1914,2.0,243.0284368,47.31638722,-99999.0,'11111222,11111222,99999999' 
TABS,ioos:station:TABS:M:1,1999-10-03T18:00:00Z,28.1921,-94.1914,2.0,243.43952,51.97516426,-99999.0,'11111222,11111222,99999999' 
TABS,ioos:station:TABS:M:1,1999-10-03T18:30:00Z,28.1921,-94.1914,2.0,239.8110655,47.40997785,-99999.0,'11111222,11111222,99999999' 
TABS,ioos:station:TABS:M:1,1999-10-03T19:00:00Z,28.1921,-94.1914,2.0,234.3002965,43.66511193,-99999.0,'11111222,11111222,99999999' 
TABS,ioos:station:TABS:M:1,1999-10-03T19:30:00Z,28.1921,-94.1914,2.0,234.4415373,45.60395158,-99999.0,'11111222,11111222,99999999' 
TABS,ioos:station:TABS:M:1,1999-10-03T20:00:00Z,28.1921,-94.1914,2.0,233.2074221,42.7940393,-99999.0,'11111222,11111222,99999999' 
TABS,ioos:station:TABS:M:1,1999-10-03T20:30:00Z,28.1921,-94.1914,2.0,236.7074704,41.53695222,-99999.0,'11111222,11111222,99999999' 
TABS,ioos:station:TABS:M:1,1999-10-03T21:00:00Z,28.1921,-94.1914,2.0,238.5156789,41.93313248,-99999.0,'11111222,11111222,99999999' 
TABS,ioos:station:TABS:M:1,1999-10-03T21:30:00Z,28.1921,-94.1914,2.0,254.2266041,35.61088738,-99999.0,'11111222,11111222,99999999' 
TABS,ioos:station:TABS:M:1,1999-10-03T22:00:00Z,28.1921,-94.1914,2.0,249.4450452,45.8274612,-99999.0,'11111222,11111222,99999999' 
TABS,ioos:station:TABS:M:1,1999-10-03T22:30:00Z,28.1921,-94.1914,2.0,260.3090107,61.07142048,-99999.0,'11111222,11111222,99999999' 
TABS,ioos:station:TABS:M:1,1999-10-03T23:00:00Z,28.1921,-94.1914,2.0,258.3323697,51.57562409,-99999.0,'11111222,11111222,99999999' 
TABS,ioos:station:TABS:M:1,1999-10-03T23:30:00Z,28.1921,-94.1914,2.0,271.8361124,46.51387105,-99999.0,'11111222,11111222,99999999' 
TABS,ioos:station:TABS:M:1,1999-10-04T00:00:00Z,28.1921,-94.1914,2.0,265.7324047,48.11337444,-99999.0,'11111222,11111222,99999999' 
TABS,ioos:station:TABS:M:1,1999-10-04T00:30:00Z,28.1921,-94.1914,2.0,267.7606237,49.65790974,-99999.0,'11111222,11111222,99999999' 
TABS,ioos:station:TABS:M:1,1999-10-04T01:00:00Z,28.1921,-94.1914,2.0,269.4638989,48.13210363,-99999.0,'11111222,11111222,99999999' 
TABS,ioos:station:TABS:M:1,1999-10-04T01:30:00Z,28.1921,-94.1914,2.0,270.3689556,46.64096483,-99999.0,'11111222,11111222,99999999' 
TABS,ioos:station:TABS:M:1,1999-10-04T02:00:00Z,28.1921,-94.1914,2.0,270.8015197,42.91419462,-99999.0,'11111222,11111222,99999999' 
TABS,ioos:station:TABS:M:1,1999-10-04T02:30:00Z,28.1921,-94.1914,2.0,271.764427,43.53062945,-99999.0,'11111222,11111222,99999999' 
TABS,ioos:station:TABS:M:1,1999-10-04T03:00:00Z,28.1921,-94.1914,2.0,272.1694531,39.36820672,-99999.0,'11111222,11111222,99999999' 
TABS,ioos:station:TABS:M:1,1999-10-04T03:30:00Z,28.1921,-94.1914,2.0,274.3450058,37.35734734,-99999.0,'11111222,11111222,99999999' 
TABS,ioos:station:TABS:M:1,1999-10-04T04:00:00Z,28.1921,-94.1914,2.0,273.2834451,33.87559594,-99999.0,'11111222,11111222,99999999' 
TABS,ioos:station:TABS:M:1,1999-10-04T04:30:00Z,28.1921,-94.1914,2.0,271.6142113,31.60253471,-99999.0,'11111222,11111222,99999999' 
TABS,ioos:station:TABS:M:1,1999-10-04T05:00:00Z,28.1921,-94.1914,2.0,267.7789366,26.84015648,-99999.0,'11111222,11111222,99999999' 
TABS,ioos:station:TABS:M:1,1999-10-04T05:30:00Z,28.1921,-94.1914,2.0,270.3226652,26.67042182,-99999.0,'11111222,11111222,99999999' 
TABS,ioos:station:TABS:M:1,1999-10-04T06:00:00Z,28.1921,-94.1914,2.0,269.2875737,24.14186405,-99999.0,'11111222,11111222,99999999' 
TABS,ioos:station:TABS:M:1,1999-10-04T06:30:00Z,28.1921,-94.1914,2.0,268.4821685,22.65794563,-99999.0,'11111222,11111222,99999999' 
TABS,ioos:station:TABS:M:1,1999-10-04T07:00:00Z,28.1921,-94.1914,2.0,260.6906669,18.42261654,-99999.0,'11111222,11111222,99999999' 
TABS,ioos:station:TABS:M:1,1999-10-04T07:30:00Z,28.1921,-94.1914,2.0,260.9571007,17.05192071,-99999.0,'11111222,11111222,99999999' 
TABS,ioos:station:TABS:M:1,1999-10-04T08:00:00Z,28.1921,-94.1914,2.0,252.5371912,16.39560917,-99999.0,'11111222,11111222,99999999' 
TABS,ioos:station:TABS:M:1,1999-10-04T08:30:00Z,28.1921,-94.1914,2.0,260.7773208,17.6582502,-99999.0,'11111222,11111222,99999999' 
TABS,ioos:station:TABS:M:1,1999-10-04T09:00:00Z,28.1921,-94.1914,2.0,258.7873995,16.09723579,-99999.0,'11111222,11111222,99999999' 
TABS,ioos:station:TABS:M:1,1999-10-04T09:30:00Z,28.1921,-94.1914,2.0,258.4869848,17.18576446,-99999.0,'11111222,11111222,99999999' 
TABS,ioos:station:TABS:M:1,1999-10-04T10:00:00Z,28.1921,-94.1914,2.0,250.7850455,17.19805803,-99999.0,'11111222,11111222,99999999' 
TABS,ioos:station:TABS:M:1,1999-10-04T10:30:00Z,28.1921,-94.1914,2.0,257.5679625,16.62991281,-99999.0,'11111222,11111222,99999999' 
TABS,ioos:station:TABS:M:1,1999-10-04T11:00:00Z,28.1921,-94.1914,2.0,257.8853199,18.44065617,-99999.0,'11111222,11111222,99999999' 
TABS,ioos:station:TABS:M:1,1999-10-04T11:30:00Z,28.1921,-94.1914,2.0,255.6273931,18.61250386,-99999.0,'11111222,11111222,99999999' 
TABS,ioos:station:TABS:M:1,1999-10-04T12:00:00Z,28.1921,-94.1914,2.0,250.2198579,18.05525408,-99999.0,'11111222,11111222,99999999' 
TABS,ioos:station:TABS:M:1,1999-10-04T12:30:00Z,28.1921,-94.1914,2.0,252.9288156,19.7919807,-99999.0,'11111222,11111222,99999999' 
TABS,ioos:station:TABS:M:1,1999-10-04T13:00:00Z,28.1921,-94.1914,2.0,256.3570524,15.17823771,-99999.0,'11111222,11111222,99999999' 
TABS,ioos:station:TABS:M:1,1999-10-04T13:30:00Z,28.1921,-94.1914,2.0,255.9565149,20.2759784,-99999.0,'11111222,11111222,99999999' 
TABS,ioos:station:TABS:M:1,1999-10-04T14:00:00Z,28.1921,-94.1914,2.0,260.5825132,29.1528815,-99999.0,'11111222,11111222,99999999' 
TABS,ioos:station:TABS:M:1,1999-10-04T14:30:00Z,28.1921,-94.1914,2.0,253.7729775,34.14000586,-99999.0,'11111222,11111222,99999999' 
TABS,ioos:station:TABS:M:1,1999-10-04T15:00:00Z,28.1921,-94.1914,2.0,251.9294513,29.305421,-99999.0,'11111222,11111222,99999999' 
TABS,ioos:station:TABS:M:1,1999-10-04T15:30:00Z,28.1921,-94.1914,2.0,245.7650384,22.87600708,-99999.0,'11111222,11111222,99999999' 
TABS,ioos:station:TABS:M:1,1999-10-04T16:00:00Z,28.1921,-94.1914,2.0,247.3772386,34.86230773,-99999.0,'11111222,11111222,99999999' 
TABS,ioos:station:TABS:M:1,1999-10-04T16:30:00Z,28.1921,-94.1914,2.0,254.0522052,39.05298196,-99999.0,'11111222,11111222,99999999' 
TABS,ioos:station:TABS:M:1,1999-10-04T17:00:00Z,28.1921,-94.1914,2.0,248.631872,40.48274324,-99999.0,'11111222,11111222,99999999' 
TABS,ioos:station:TABS:M:1,1999-10-04T17:30:00Z,28.1921,-94.1914,2.0,248.0132998,42.57644889,-99999.0,'11111222,11111222,99999999' 
TABS,ioos:station:TABS:M:1,1999-10-04T18:00:00Z,28.1921,-94.1914,2.0,237.0360464,35.87534529,-99999.0,'11111222,11111222,99999999' 